Theta_e
343 344 348 347 348 348 348 348 348 349 348 348 347 347 348 347 347 346 346 346 345 345 344 342 341 341 342 343 344 345 346 345 345 346 347 347 347 347 347 347 348 348 347 345 345 346 346 344 344 343 343 344 344 344 344 344 344 344 343 342 342 341 340 341 342 343 343 343 344 344 344 342 343 342 342 341 339 337 335 335 336 332 333 334 336
342 346 347 349 348 348 348 349 348 349 348 348 347 348 347 347 346 346 346 345 345 344 342 342 342 342 341 341 342 342 343 343 343 345 345 345 345 345 345 345 346 345 343 341 341 342 343 343 344 344 344 344 344 344 343 343 343 342 341 341 340 340 339 338 340 340 340 342 344 343 341 341 340 340 340 340 339 337 334 335 335 333 332 336 335
344 345 347 348 346 348 348 348 348 349 348 348 348 347 346 346 345 345 345 345 344 342 341 343 342 342 342 343 342 342 341 341 341 343 343 343 343 343 343 344 343 344 344 345 345 344 344 343 344 344 344 343 344 343 341 339 339 339 339 339 339 338 338 338 339 339 339 340 342 342 339 340 338 338 337 338 338 338 334 334 334 334 331 335 333
343 345 347 346 346 348 347 348 349 348 349 348 347 347 346 346 346 345 343 342 342 342 342 339 339 342 341 341 341 341 342 341 341 341 341 342 342 344 345 344 345 344 345 347 346 343 342 342 343 344 343 343 341 340 339 338 338 337 337 337 337 337 337 338 338 338 339 339 340 343 336 333 332 336 337 336 336 336 333 333 333 334 334 334 332
341 344 345 347 348 348 349 348 348 349 348 347 347 347 346 345 345 343 342 342 341 341 340 339 341 342 342 342 342 342 341 341 341 340 341 342 343 343 343 343 342 341 343 343 343 344 343 342 342 342 341 340 340 338 338 337 337 337 336 336 336 335 336 337 337 338 339 341 339 336 332 333 330 332 335 336 334 333 333 333 332 332 332 333 333
339 343 345 345 346 347 347 347 347 348 348 347 347 347 346 345 345 345 344 344 343 341 342 342 342 343 342 342 343 343 343 342 341 340 341 341 340 343 344 343 344 343 343 343 342 342 343 341 341 341 341 340 338 338 337 337 337 336 336 336 335 335 335 336 337 338 341 339 336 331 332 331 330 329 333 334 333 332 332 333 334 332 332 332 332
338 339 342 343 344 346 345 347 347 348 348 347 346 346 346 345 345 344 343 343 342 342 342 342 343 342 342 341 341 341 341 340 341 341 340 341 341 342 342 342 342 342 343 342 343 343 343 343 342 342 341 340 339 338 337 336 336 336 335 335 335 334 334 335 336 338 338 333 329 330 330 331 331 329 332 333 333 332 331 333 333 333 331 331 332
339 339 339 342 345 344 345 347 347 348 348 347 346 345 345 344 343 343 341 340 338 341 344 344 343 342 341 340 342 341 341 340 340 340 340 340 340 340 341 342 343 343 343 343 344 345 344 344 343 342 341 340 339 337 337 336 336 335 335 334 334 334 334 335 335 335 335 330 331 332 331 329 330 330 332 333 333 333 333 332 332 331 332 331 330
338 339 339 340 344 343 345 347 347 347 348 347 346 346 344 343 343 343 341 339 338 342 342 342 341 338 337 339 340 339 338 338 338 338 338 338 339 339 339 341 341 341 341 341 342 344 344 343 342 342 341 339 338 337 336 335 335 335 334 334 334 334 334 336 336 336 331 329 329 330 331 329 330 329 332 333 332 332 333 331 330 331 332 330 329
337 338 338 340 344 342 347 346 347 347 347 347 346 345 343 342 343 342 340 338 339 340 340 340 337 336 337 337 337 337 339 339 339 339 339 339 339 339 339 340 342 342 342 342 342 341 341 341 341 341 341 339 337 336 336 335 335 334 334 334 334 333 335 334 339 332 328 328 330 331 331 336 330 329 330 333 333 331 331 332 331 330 331 331 330
337 338 339 342 346 342 347 347 346 346 347 346 345 345 343 342 342 341 339 339 339 339 340 340 339 340 341 341 341 342 342 341 341 340 340 340 339 339 338 340 341 341 342 341 341 341 341 341 340 340 340 339 337 336 336 335 335 335 334 334 333 333 335 335 332 328 329 328 328 329 333 336 330 330 332 331 331 330 333 333 330 330 330 331 330
337 338 340 344 347 342 346 346 346 346 346 345 345 344 343 342 341 340 339 339 339 339 342 343 343 343 342 342 341 341 341 340 340 339 338 338 339 339 338 339 340 341 341 342 341 341 342 340 340 340 339 339 337 336 335 335 335 335 335 334 334 334 335 334 328 328 328 328 328 329 330 331 330 330 333 334 336 333 331 331 331 331 331 331 330
337 338 341 344 346 340 345 345 345 346 345 345 344 344 342 341 340 339 337 338 338 339 342 342 342 341 340 339 339 339 339 338 338 337 337 337 337 337 338 338 339 339 340 340 341 340 340 341 340 339 339 338 338 337 336 336 335 335 334 334 334 333 334 330 329 328 328 328 328 328 328 331 332 334 334 336 337 333 332 331 331 331 330 331 331
336 337 340 342 344 345 340 343 345 345 346 345 344 342 341 340 339 338 338 339 341 342 342 341 341 340 339 338 338 337 336 336 335 335 335 335 336 336 336 336 337 338 338 339 339 339 339 339 339 340 338 339 338 337 337 336 336 335 334 334 334 334 332 334 330 329 328 328 328 328 328 330 330 335 335 336 336 335 331 331 332 331 330 331 331
335 337 341 343 344 345 342 340 342 343 344 344 343 341 340 340 339 339 339 341 342 342 342 341 340 338 337 337 337 337 336 334 335 337 337 337 338 338 338 338 338 338 337 338 338 338 338 338 339 338 337 337 337 337 336 336 335 335 334 333 332 332 330 331 329 330 329 329 328 328 329 329 332 334 336 336 336 337 333 330 333 331 331 330 331
336 338 341 340 342 344 346 342 335 337 341 342 342 342 342 342 341 340 340 340 339 342 342 342 341 339 338 338 336 335 335 334 337 337 336 335 335 336 336 336 336 336 336 336 336 337 337 337 337 337 336 336 337 336 336 334 334 333 332 332 329 330 329 328 330 329 329 330 329 330 329 328 332 334 335 336 337 337 337 336 335 333 333 331 332
336 338 337 338 342 342 344 344 339 331 333 336 337 338 339 341 342 343 343 343 342 342 342 341 340 340 339 337 336 336 337 338 338 337 337 336 336 336 336 336 336 336 336 336 337 336 337 337 336 336 336 335 335 335 334 333 332 330 330 328 328 328 328 326 331 330 329 330 330 330 328 328 331 334 335 335 336 337 337 337 336 335 335 336 335
338 337 335 337 338 338 342 344 343 342 341 335 332 336 338 340 340 341 342 342 341 341 341 340 340 340 340 339 339 339 337 336 336 337 337 336 335 334 334 334 335 335 335 335 335 335 335 334 334 334 334 333 334 333 333 332 330 328 328 327 326 326 327 326 329 329 329 331 329 330 326 329 332 333 334 335 336 337 337 337 336 335 335 336 335
336 335 335 336 336 338 340 343 343 342 341 340 339 339 333 337 338 338 340 340 340 339 339 338 339 338 337 335 334 333 333 333 334 335 333 331 333 335 335 334 334 334 334 334 334 334 333 333 333 333 333 333 332 332 332 330 329 327 325 326 324 326 323 328 329 329 329 327 327 328 325 329 331 333 333 335 336 336 338 336 335 335 335 336 335
335 334 334 335 336 336 338 339 342 341 341 339 339 339 333 331 334 335 336 336 336 336 335 334 333 331 331 330 330 333 331 332 326 331 328 328 328 330 334 334 335 334 334 334 334 333 333 333 333 331 331 331 331 329 329 329 328 327 325 324 324 322 332 327 328 328 326 327 326 327 328 329 332 333 333 334 335 336 336 334 334 335 335 335 334
332 333 333 333 336 335 336 336 338 339 339 340 339 339 337 330 331 329 330 331 332 332 330 325 325 325 328 327 330 334 334 335 337 333 327 327 323 325 332 333 333 333 333 333 333 333 332 332 331 331 330 328 327 327 327 328 326 326 327 323 318 331 328 328 328 327 327 326 326 327 328 328 331 333 333 333 334 335 334 333 334 334 334 335 335
330 331 332 332 333 335 335 335 335 335 337 339 339 339 339 334 337 338 337 332 328 328 333 336 335 337 327 334 335 332 332 332 333 334 332 331 327 322 325 329 330 329 329 330 331 331 331 331 330 329 330 329 323 329 328 322 324 326 323 317 328 329 328 329 328 327 328 330 329 325 327 329 331 333 334 334 335 335 335 334 335 334 334 334 335
328 330 330 331 333 334 333 333 334 335 336 337 337 337 336 334 334 334 335 330 334 335 334 333 334 334 334 332 329 330 332 331 334 332 331 320 323 321 323 325 326 325 325 325 328 327 329 327 328 328 330 324 332 331 330 331 333 320 317 329 328 329 328 328 327 327 327 329 330 324 326 328 330 332 334 334 335 335 333 333 334 334 334 334 334
328 330 330 331 332 332 332 333 334 335 334 333 334 333 331 332 332 333 332 331 332 332 332 332 332 333 333 331 330 330 332 332 324 324 325 329 323 319 321 321 321 320 320 326 324 328 327 326 325 326 326 331 329 327 328 329 329 330 330 328 327 328 327 326 326 326 327 328 330 323 324 327 329 331 333 334 335 334 333 333 333 334 334 334 333
330 331 331 331 331 332 332 332 334 335 333 332 332 331 332 332 332 333 333 331 331 332 332 333 332 332 332 332 332 331 332 331 331 330 333 332 332 332 329 331 332 332 319 332 331 335 328 333 331 329 330 329 329 329 330 329 327 328 327 327 327 327 327 327 327 327 329 330 327 323 323 325 329 331 332 333 334 333 333 333 334 334 334 334 333
331 330 330 330 331 332 332 332 333 334 333 331 331 332 332 332 331 333 332 332 333 331 331 331 332 331 332 332 331 330 331 331 331 332 331 329 330 329 329 329 329 330 328 328 328 329 329 329 329 329 329 331 330 331 331 329 328 327 327 328 326 326 327 328 327 328 329 329 327 321 323 323 326 330 331 332 333 333 333 333 333 334 333 333 334
329 329 331 330 331 332 332 332 332 332 332 333 332 332 331 333 331 330 331 331 330 329 328 329 331 331 333 333 330 329 329 329 329 330 329 329 329 329 327 327 329 328 328 328 329 329 330 328 330 330 330 331 330 331 330 330 330 328 328 328 328 326 327 329 328 328 329 330 321 319 321 322 324 327 330 331 332 333 333 333 333 334 333 333 334
330 330 330 330 331 331 332 331 331 332 332 332 331 331 331 332 331 331 331 329 329 328 329 329 330 331 332 330 329 329 328 327 328 328 328 328 329 330 329 328 329 329 330 330 331 331 330 330 331 331 330 331 330 331 330 329 329 329 328 328 328 326 327 327 328 329 329 329 328 320 321 321 323 325 328 331 332 332 332 332 333 332 332 333 333
330 330 330 330 331 331 331 330 330 330 331 331 330 331 331 332 332 331 329 330 330 328 331 332 329 329 330 330 330 327 328 328 328 328 328 328 330 330 330 329 330 330 330 330 330 331 330 329 330 329 330 330 329 330 329 329 329 328 327 326 327 326 327 327 328 328 329 328 329 322 319 321 322 324 326 328 329 330 330 331 331 331 332 332 331
332 332 331 331 331 331 330 330 330 331 331 331 331 331 331 330 331 330 331 329 330 330 332 330 328 329 329 331 331 330 329 329 329 330 328 329 329 330 330 331 330 331 330 330 330 329 329 329 330 330 329 329 328 329 328 328 328 327 326 326 327 326 327 327 327 328 328 328 328 325 316 320 322 323 324 326 326 327 328 328 329 329 331 331 330
332 332 332 332 331 330 330 331 331 331 332 330 331 330 331 331 331 331 332 329 330 332 332 331 331 330 329 332 332 333 332 332 330 330 329 330 330 330 330 331 330 330 330 330 331 330 330 329 329 328 328 328 327 328 327 327 326 326 327 327 327 327 327 327 327 328 327 327 327 327 325 317 321 321 323 324 324 324 325 325 326 326 325 326 327
332 332 332 333 332 330 330 330 331 331 331 331 331 331 331 331 332 331 331 330 331 331 331 331 330 332 332 333 334 332 332 332 333 331 330 330 331 330 330 330 330 330 331 331 330 331 330 330 330 329 329 328 326 327 327 326 325 326 327 327 327 327 327 327 327 327 327 327 326 325 326 325 316 319 321 322 320 320 322 322 322 322 322 325 327
333 333 333 333 333 331 330 330 331 331 331 330 330 331 332 331 332 331 331 332 332 330 330 331 331 332 334 334 333 333 332 332 332 333 332 331 331 330 330 330 330 331 331 331 331 330 329 329 329 330 329 328 326 326 328 326 326 326 326 327 327 327 328 327 327 326 326 325 324 324 325 324 324 314 316 319 319 317 319 319 319 318 321 325 325
332 333 333 332 333 334 332 331 331 331 331 331 331 331 331 331 331 331 331 332 332 330 330 331 331 330 333 334 334 334 333 332 333 333 331 331 331 330 330 330 330 331 330 330 329 329 328 328 328 327 324 326 325 325 324 325 325 326 326 327 327 327 327 327 326 325 324 324 324 325 323 321 317 316 321 314 317 317 316 318 317 316 321 323 322
332 333 333 334 333 333 333 331 331 331 330 330 331 330 331 331 330 330 330 332 330 330 330 330 330 330 331 332 333 333 333 333 334 332 332 331 330 330 329 329 330 331 330 329 328 328 329 327 327 325 326 325 325 325 325 324 325 325 326 326 326 327 328 326 326 324 323 324 324 323 320 317 314 317 316 315 312 314 316 316 316 314 318 320 319
331 332 333 334 333 334 334 333 332 331 331 330 332 332 331 330 330 327 329 331 328 328 327 327 328 329 330 331 333 334 333 334 334 334 332 332 330 330 329 330 331 330 330 328 328 327 327 327 327 327 324 323 324 324 325 324 324 324 325 326 326 326 326 325 324 323 323 324 321 319 317 316 314 314 311 312 310 314 313 316 316 313 315 317 317
332 332 332 333 333 334 333 333 333 331 331 330 332 333 332 331 329 329 329 331 328 329 329 329 328 328 329 331 333 333 334 335 334 334 332 331 331 330 330 331 331 330 329 328 328 329 327 327 327 327 326 324 324 324 325 325 324 324 325 325 326 326 326 324 323 322 324 320 316 316 315 314 314 310 310 310 309 310 312 312 316 314 313 313 313
331 332 333 333 332 333 334 334 334 334 333 332 331 332 332 331 330 330 329 331 331 333 333 331 330 329 330 332 334 334 334 335 334 334 332 332 332 331 331 331 331 330 328 328 327 328 328 328 326 327 327 326 324 324 323 324 324 324 323 324 324 324 324 324 322 319 320 315 315 315 313 310 312 311 310 310 308 310 311 310 312 311 310 312 311
331 332 332 332 333 333 334 334 333 334 333 334 333 332 332 332 332 332 332 333 335 334 334 333 333 332 332 333 334 333 333 334 334 333 332 331 331 331 330 331 331 329 328 327 327 329 329 329 327 326 327 327 325 326 325 325 325 322 323 321 323 323 324 322 323 319 320 317 314 312 313 309 310 310 309 309 309 310 310 310 309 309 312 310 311
331 331 331 332 332 332 333 334 333 333 334 333 334 332 332 331 330 332 332 332 334 333 335 334 334 333 333 333 334 334 333 333 333 333 332 330 331 330 331 331 331 330 327 326 326 327 328 328 328 326 326 327 327 326 326 324 323 321 321 321 322 321 322 323 320 318 320 317 313 310 308 307 308 309 308 309 309 309 309 308 308 308 308 308 310
331 331 330 331 331 331 331 331 333 333 333 332 332 331 330 331 331 331 330 332 332 334 334 334 334 334 334 334 334 334 334 334 333 333 331 329 330 330 330 330 330 329 328 327 328 329 329 328 327 327 325 325 325 325 325 324 322 319 319 321 319 321 321 322 318 318 320 315 311 309 308 307 307 308 309 311 310 310 309 307 307 307 306 309 306
329 330 330 330 331 331 330 331 332 332 332 333 332 332 332 332 331 330 331 331 331 331 332 333 334 335 334 334 335 335 335 334 333 333 332 331 330 329 329 329 330 329 328 329 330 326 328 328 326 324 325 324 324 323 324 321 319 316 313 315 316 318 320 320 316 316 317 313 312 310 309 307 306 307 310 308 310 309 308 307 309 307 307 306 305
329 329 330 330 331 331 331 331 332 332 332 333 333 332 333 333 333 333 332 332 335 335 335 334 335 334 335 335 336 335 335 335 335 333 332 331 331 329 328 329 329 329 328 328 328 328 327 326 326 324 323 323 322 321 322 321 316 317 317 312 312 310 313 315 315 311 312 309 310 310 308 305 303 305 308 306 307 309 309 308 309 308 307 306 305
328 329 330 330 330 330 331 331 332 333 332 332 331 334 334 335 335 336 335 335 334 335 336 335 334 334 333 334 336 335 335 334 334 334 332 332 332 330 330 330 329 330 329 328 327 327 327 327 326 325 324 319 320 320 321 321 319 315 312 313 311 310 308 309 307 305 308 307 307 307 305 302 302 305 306 304 305 307 307 307 308 307 306 306 306
327 328 329 330 330 330 331 332 332 332 333 332 332 334 334 333 334 334 336 335 335 335 333 332 333 333 333 334 334 335 334 334 334 334 332 332 333 332 331 330 330 330 330 328 327 328 327 328 327 325 324 321 320 320 319 319 319 318 314 312 308 308 302 303 306 307 309 308 307 307 305 301 301 302 302 304 306 307 305 306 306 306 308 308 308
327 328 330 330 331 331 332 332 333 333 333 334 333 333 332 331 331 330 329 330 329 330 329 329 330 332 332 334 335 335 334 333 333 333 333 331 332 332 332 331 331 331 330 329 328 328 327 326 326 325 324 324 321 319 317 317 318 316 316 315 312 309 306 303 306 303 302 304 305 304 303 302 302 304 302 301 304 305 304 305 306 305 307 306 306
328 330 330 331 331 331 332 332 333 333 334 334 334 332 332 332 331 330 330 329 328 329 331 331 331 332 333 333 334 334 335 333 333 333 333 333 332 333 332 331 331 330 329 329 328 327 327 326 326 324 323 322 320 317 316 315 316 315 315 315 313 312 311 309 301 302 298 302 304 303 303 303 304 306 303 299 303 305 305 306 307 305 306 306 305
329 330 330 331 331 331 332 332 333 333 334 335 334 333 331 331 331 331 330 330 329 328 330 331 332 332 332 332 332 333 334 334 333 333 333 333 333 332 332 331 330 330 327 327 326 327 325 325 324 324 322 321 319 317 316 315 312 311 313 311 310 310 310 309 305 299 295 297 300 304 304 302 306 304 305 301 301 303 305 307 306 304 302 303 303
328 329 329 330 331 332 331 332 332 332 333 335 334 333 331 331 330 330 330 329 330 330 331 331 331 332 332 332 332 333 334 334 334 333 333 333 332 331 331 330 329 328 325 327 326 324 323 322 321 321 321 320 319 317 316 315 315 312 308 308 308 306 305 305 301 300 297 299 297 299 298 303 304 303 304 303 299 303 305 305 304 303 301 302 303
327 329 330 330 331 332 331 331 331 332 333 334 333 334 332 330 330 330 329 329 329 330 331 331 330 331 331 331 332 332 332 333 332 332 332 331 331 331 331 330 329 327 323 326 325 323 322 322 322 321 321 319 318 316 315 315 315 312 307 307 305 304 303 302 300 298 300 302 294 295 297 297 294 297 303 300 298 298 304 305 304 304 303 301 301
325 327 328 329 330 330 330 329 330 332 332 332 333 333 332 331 330 330 330 329 329 329 329 329 330 330 329 330 331 331 331 330 331 330 330 330 329 330 330 329 329 325 323 324 322 322 321 321 321 320 319 318 315 314 314 316 312 310 309 304 304 303 303 302 300 298 298 296 295 296 298 299 294 293 300 300 299 299 302 303 303 302 302 302 300
Wind_Speed
7 9 9 8 9 9 9 9 9 9 10 10 11 11 12 13 14 14 14 12 13 14 14 13 12 12 12 13 13 14 13 13 13 14 16 17 17 17 17 17 17 18 18 17 18 17 18 17 17 17 17 17 17 17 18 18 18 17 16 16 16 16 16 15 14 13 14 16 17 17 18 18 19 18 18 18 17 18 17 17 15 12 11 13 16
10 8 9 9 7 9 9 9 9 10 11 12 11 11 12 13 13 13 12 12 13 14 12 12 13 13 13 11 12 12 12 12 12 15 16 15 15 15 15 16 16 16 15 14 15 16 17 17 17 17 17 17 17 17 17 17 17 16 16 16 15 15 15 14 12 11 10 12 16 18 20 18 18 17 17 17 18 18 16 17 17 11 9 15 16
11 9 9 9 4 7 9 9 9 11 11 12 11 11 12 12 13 13 12 12 13 12 12 14 14 13 13 13 12 12 13 12 11 13 13 14 14 15 15 15 15 15 16 16 17 17 17 17 17 17 17 17 17 17 16 16 16 16 16 15 15 14 14 13 12 11 10 7 11 20 18 19 19 17 17 17 18 18 17 16 16 15 10 16 14
11 9 9 7 4 2 8 9 10 11 11 11 11 12 13 12 12 12 12 11 11 12 13 12 11 13 12 12 12 12 13 13 12 12 13 14 15 15 16 15 14 15 16 17 18 18 16 16 17 17 17 17 17 16 16 16 16 16 16 16 15 14 13 12 11 10 9 9 9 1 9 11 13 17 17 17 17 18 15 16 16 16 16 14 16
10 8 9 9 8 7 9 10 10 11 11 11 11 12 12 12 11 12 12 11 11 13 12 12 13 11 11 11 11 12 12 12 12 13 14 14 14 13 15 14 15 14 14 15 16 17 17 17 17 17 17 16 16 16 16 16 16 16 16 15 15 14 13 11 10 8 7 7 7 9 9 11 10 14 16 17 16 15 15 16 16 16 15 15 15
10 8 9 9 8 9 7 9 10 11 11 11 11 11 11 11 11 12 12 11 11 12 12 13 13 13 12 12 12 12 12 12 12 13 13 14 13 15 15 14 14 14 14 14 14 15 16 16 16 16 16 15 15 15 16 16 16 15 15 14 14 13 13 12 11 10 8 3 5 8 10 9 10 9 17 16 14 13 14 15 16 16 15 16 14
9 8 8 7 6 8 7 8 9 11 12 11 10 10 12 11 12 12 12 12 13 12 14 14 13 13 13 11 11 12 11 12 12 11 12 13 13 14 13 14 14 14 13 14 14 14 15 16 16 16 16 15 15 15 15 15 15 14 14 14 13 12 10 10 10 9 8 9 7 8 7 8 9 7 14 15 15 15 13 15 15 15 14 14 17
7 6 7 7 7 8 8 6 10 12 12 12 10 8 11 11 12 12 12 11 9 14 15 14 13 12 12 11 12 11 12 12 11 11 11 11 13 12 13 13 14 13 13 14 14 14 15 15 16 15 15 15 15 14 14 14 14 14 13 13 12 10 8 7 7 8 9 9 8 8 7 8 8 8 12 13 15 15 16 14 14 14 15 15 12
8 7 7 7 8 9 5 8 9 12 13 12 9 10 11 12 12 11 11 9 10 13 11 13 12 10 9 11 11 10 11 11 11 11 11 11 11 11 12 12 12 13 13 13 14 15 15 15 15 15 14 14 14 14 14 14 13 13 13 12 10 9 10 12 13 6 8 8 10 8 8 7 10 9 11 11 13 15 15 14 13 15 16 14 13
9 8 7 7 8 7 6 9 11 11 12 11 10 11 11 10 11 11 10 10 11 11 12 11 10 9 12 10 10 11 12 12 11 11 10 10 9 10 10 12 14 12 12 13 13 13 13 14 14 13 14 13 13 13 13 13 13 12 12 12 11 10 10 10 8 9 8 9 10 8 5 7 10 8 9 9 10 11 9 10 11 10 9 12 14
9 8 7 9 10 7 11 11 12 11 12 13 12 11 11 10 11 11 11 10 11 10 9 10 11 11 11 11 10 11 12 11 11 11 11 10 10 10 11 13 13 12 12 12 13 13 13 13 13 13 13 12 12 12 12 12 12 12 12 11 10 11 12 13 7 8 9 9 8 7 7 9 7 8 9 9 8 9 6 9 9 12 13 14 13
9 8 9 9 10 7 10 10 11 11 12 12 12 11 10 11 11 10 10 11 10 10 12 12 12 12 12 12 12 12 12 12 11 10 11 10 10 10 10 11 13 13 13 11 12 13 13 13 13 12 12 12 11 11 11 11 11 11 11 11 10 11 13 12 7 7 8 9 8 7 9 9 9 8 9 9 12 10 9 9 9 11 12 14 13
9 8 10 10 10 7 10 10 8 9 12 12 12 11 10 11 10 9 8 10 9 11 13 13 13 11 11 11 12 12 11 11 11 11 10 10 10 10 10 10 11 12 12 12 12 13 12 13 12 12 11 11 11 11 11 11 11 11 11 10 10 9 12 14 5 7 7 8 7 7 7 7 8 12 10 12 11 8 7 7 8 8 8 11 13
8 9 9 10 9 9 9 8 8 7 10 10 11 10 10 10 10 8 8 11 10 10 11 12 11 11 11 11 11 10 10 10 9 9 9 9 10 9 9 9 10 12 11 11 11 12 12 12 12 12 11 11 11 11 11 11 11 10 10 11 10 11 9 7 5 6 7 7 7 7 6 7 8 13 12 11 12 9 3 7 9 8 7 9 10
8 9 10 10 10 10 11 8 7 7 9 10 10 10 10 11 9 8 10 11 11 10 10 10 11 11 11 11 11 11 10 8 10 10 9 10 10 9 10 10 10 10 11 11 11 12 11 11 11 11 11 11 11 11 11 11 10 10 10 9 10 11 12 7 5 6 7 6 6 6 6 7 12 12 12 12 11 12 5 1 9 7 7 8 10
8 8 9 9 10 11 10 9 7 7 8 8 8 8 7 8 10 11 11 10 10 11 11 10 10 12 12 12 11 10 9 9 11 10 10 9 9 9 9 9 9 9 9 9 10 10 10 10 10 10 10 10 10 10 10 10 10 9 8 8 7 9 11 9 4 6 6 5 5 4 9 8 13 12 11 11 12 11 11 11 11 9 9 5 9
8 8 8 10 10 9 10 10 8 10 8 9 8 8 9 10 11 12 12 12 13 11 11 11 11 11 12 13 12 10 11 11 11 11 11 10 10 9 10 10 10 10 9 10 10 10 10 10 10 9 10 9 9 9 9 9 8 8 6 6 6 5 8 10 5 5 5 4 4 4 7 7 10 11 11 11 11 11 10 10 10 11 11 12 12
7 7 8 9 8 9 9 11 10 10 9 8 8 8 9 10 11 11 11 11 13 12 11 12 11 12 12 11 10 10 11 11 11 11 10 10 10 9 9 9 9 9 9 8 9 9 9 9 9 9 9 8 8 8 7 6 7 6 4 4 4 5 7 8 4 4 4 4 4 5 6 7 10 10 11 11 11 11 11 11 11 11 10 11 11
7 7 8 8 9 8 10 10 10 9 10 8 7 8 9 9 10 11 10 10 11 11 11 11 11 11 11 11 10 10 9 10 11 11 10 9 7 8 8 9 9 8 8 8 8 9 8 9 8 8 7 7 6 6 6 5 4 4 4 3 5 5 8 6 5 4 4 5 5 6 6 8 9 10 11 12 12 12 12 12 12 12 12 11 11
7 7 8 8 8 8 8 9 9 9 8 8 8 8 8 9 9 9 10 10 10 10 10 10 10 10 11 11 11 10 9 8 9 8 10 10 11 8 8 8 9 8 8 8 8 8 8 8 7 6 5 5 5 5 4 3 2 1 2 4 6 8 3 4 4 4 4 4 5 6 7 8 9 10 11 12 12 13 12 12 12 12 13 13 12
6 7 7 7 8 8 8 7 9 9 9 8 8 8 8 10 7 8 9 10 11 11 9 10 9 9 9 10 10 7 7 7 7 6 6 6 7 8 8 9 9 9 8 7 7 7 7 6 5 4 2 2 1 3 4 2 1 1 3 5 8 6 4 4 5 4 4 4 4 6 9 9 10 11 11 11 11 12 13 13 13 12 13 12 13
8 8 8 8 8 8 9 8 7 8 8 7 7 7 7 8 8 7 7 7 8 10 9 8 8 7 7 7 6 5 5 5 5 6 6 6 5 6 7 6 6 7 6 5 5 5 5 5 3 1 0 3 5 4 4 4 3 3 6 7 6 4 4 5 5 4 4 4 4 7 9 10 11 11 11 11 12 12 12 13 13 13 13 13 13
8 8 8 9 8 8 8 8 8 9 8 7 6 6 8 6 7 7 6 7 8 8 7 7 7 7 6 6 5 5 5 5 4 4 4 7 6 5 6 6 4 4 3 4 3 4 3 2 0 2 4 6 6 2 2 2 4 8 7 6 3 4 5 5 5 4 5 4 3 8 8 11 11 11 11 12 12 12 12 12 13 13 13 13 13
9 8 8 8 8 8 9 8 9 8 8 6 5 6 6 5 5 5 6 6 7 6 6 7 6 6 6 5 4 5 5 5 5 5 6 6 5 7 8 7 7 5 4 4 5 2 2 3 4 6 5 4 1 2 1 1 2 3 2 4 4 5 5 5 5 5 5 4 4 8 8 10 11 11 10 11 11 12 12 12 13 13 13 13 13
7 8 7 8 9 9 9 9 9 8 8 6 6 6 5 4 4 5 6 5 6 5 5 6 5 7 6 5 5 5 4 5 6 5 5 4 4 5 6 5 5 4 6 3 3 4 5 4 4 5 2 1 1 1 2 3 5 4 5 4 5 5 5 4 3 4 4 4 6 9 8 10 11 11 11 10 11 12 12 12 12 13 12 13 13
8 8 8 8 9 8 9 8 9 9 8 7 6 5 5 5 5 4 5 5 5 5 5 5 6 6 6 5 5 5 4 4 4 3 3 3 3 2 2 2 2 3 3 2 1 0 1 1 1 1 1 1 2 2 3 5 5 5 5 5 5 5 3 3 3 3 4 4 6 11 8 10 10 11 11 11 11 11 12 11 12 12 13 13 13
8 8 8 7 9 10 9 9 9 9 9 7 6 6 5 5 5 5 5 5 5 5 4 5 5 6 6 5 5 5 4 4 4 4 3 3 3 2 3 2 2 2 2 2 2 1 1 0 0 1 2 2 3 3 3 2 2 2 4 3 4 5 3 3 3 4 4 3 6 11 9 9 10 10 11 11 12 12 13 13 13 14 13 13 14
8 8 7 7 9 10 11 10 9 9 8 8 7 6 6 5 5 5 5 4 5 5 4 4 5 5 5 5 5 5 5 4 4 4 4 3 3 2 2 3 2 2 2 1 1 1 1 1 1 2 2 2 2 3 3 4 4 4 4 4 4 4 4 4 4 4 4 4 4 9 8 7 8 9 11 12 12 13 13 13 14 14 14 15 15
9 8 7 7 9 9 11 11 10 10 8 8 7 5 6 5 5 5 6 5 4 5 4 4 4 5 5 5 5 5 4 4 4 4 4 3 3 3 2 2 2 2 2 2 1 2 2 1 2 3 3 3 3 4 3 5 4 4 4 4 4 4 4 4 4 5 4 3 3 8 8 5 7 9 11 12 13 13 13 14 14 13 14 15 15
10 9 8 7 8 10 11 12 12 10 9 8 6 6 6 6 6 6 5 5 4 4 5 4 4 4 5 5 5 4 4 4 4 4 4 4 4 3 3 2 2 2 1 2 1 2 2 2 2 3 3 4 4 3 3 4 5 4 3 3 4 5 4 3 4 4 3 4 3 6 8 5 6 9 11 12 13 13 13 14 14 14 15 15 15
10 11 10 8 7 9 10 11 11 11 9 9 7 7 6 6 6 6 5 5 5 4 5 5 4 5 5 5 5 4 4 3 4 4 4 4 4 4 3 3 2 3 2 2 1 2 3 3 2 4 5 5 5 5 4 3 4 4 3 3 4 4 4 4 4 3 4 3 2 2 7 7 6 7 10 11 13 13 13 14 14 14 14 14 15
12 10 9 9 9 9 10 11 11 11 10 9 8 7 7 6 7 6 6 6 6 5 4 5 5 5 5 6 5 4 4 4 3 4 3 4 3 3 3 2 3 1 2 2 2 3 3 4 3 3 4 5 5 4 4 4 3 3 3 4 3 3 3 3 3 4 4 2 3 3 3 4 7 7 7 9 13 13 13 14 14 15 14 15 15
11 11 11 10 11 10 9 10 10 11 11 10 8 7 7 7 6 6 6 6 6 5 5 5 5 5 5 6 6 6 5 4 4 4 3 3 3 2 3 2 3 2 2 1 2 4 4 4 4 2 3 3 4 3 2 3 3 3 3 3 3 2 3 3 4 4 3 3 3 4 3 4 3 7 8 7 11 14 14 14 15 15 15 16 16
11 11 12 12 10 8 7 7 10 10 11 9 8 7 7 7 6 6 6 6 6 6 6 5 5 5 6 6 6 6 5 5 5 5 4 4 3 3 3 3 2 1 3 3 4 4 4 3 3 3 3 4 3 3 3 3 3 3 3 3 2 3 3 2 3 3 2 3 3 3 3 4 5 5 4 7 11 12 14 14 15 16 16 17 17
11 12 13 13 12 9 8 7 9 10 10 9 9 8 8 7 7 6 6 6 6 6 6 6 6 6 6 6 7 6 6 5 5 5 4 4 4 4 3 3 3 2 3 4 3 4 3 3 2 3 4 3 2 1 2 2 3 3 3 3 3 3 2 3 3 2 3 2 4 3 4 4 5 4 3 2 7 11 10 12 14 16 16 16 17
14 12 12 13 14 13 11 9 10 10 10 9 8 8 8 7 6 7 6 7 6 6 6 6 6 6 6 6 8 7 7 6 6 5 5 4 4 5 4 4 1 2 5 3 1 3 3 1 2 2 3 3 3 2 2 3 3 3 3 3 3 3 3 3 3 2 3 3 3 4 4 4 4 3 4 3 4 6 8 6 9 14 15 15 16
15 14 13 14 14 14 12 12 11 10 9 10 8 8 7 7 7 7 7 7 7 7 6 6 6 6 6 6 8 7 7 7 7 6 5 5 5 5 4 4 4 4 4 3 2 2 1 0 2 2 2 3 2 3 3 4 3 3 4 3 3 2 2 3 2 2 3 4 4 4 3 4 4 4 4 4 4 4 5 6 7 10 11 13 15
15 15 14 14 14 13 12 12 12 11 9 9 8 8 7 7 7 7 8 7 8 7 7 6 7 7 7 7 8 8 8 8 7 7 6 6 5 4 5 4 4 4 3 3 3 2 1 2 3 2 2 2 3 4 4 4 4 3 3 3 3 2 2 2 2 2 3 4 4 3 4 4 4 4 4 3 4 4 4 5 8 8 11 10 14
12 15 14 13 13 12 11 11 11 12 11 10 9 8 8 7 7 7 7 8 7 7 7 7 6 7 7 7 8 8 8 8 8 8 7 6 6 5 5 5 5 5 4 4 4 3 1 2 4 4 2 0 2 2 3 4 5 3 2 2 2 2 2 2 1 3 3 3 3 3 3 4 3 3 4 4 4 4 4 3 4 3 5 9 11
13 14 15 14 14 13 12 11 12 12 11 10 9 8 8 8 8 7 8 8 8 7 7 7 7 8 7 8 8 8 8 8 8 8 7 6 5 6 6 5 5 5 5 5 5 3 3 4 5 4 2 2 1 2 2 4 4 4 2 2 1 3 2 2 2 3 3 2 3 3 4 4 3 3 4 3 3 3 3 4 3 3 4 4 8
14 15 16 16 16 15 13 13 12 13 11 10 10 10 10 9 8 9 8 9 8 8 7 7 9 8 9 9 9 9 9 8 8 8 8 7 6 6 7 6 6 5 5 6 5 3 3 3 2 2 2 3 1 2 2 3 5 2 0 2 2 3 3 2 2 3 3 3 3 3 3 3 4 4 3 2 2 3 3 4 3 3 4 4 4
14 15 16 16 16 16 16 15 13 14 14 13 11 11 11 11 10 10 9 8 9 9 9 8 9 8 10 10 9 10 9 9 9 9 8 8 7 6 7 6 6 6 6 5 3 3 3 2 1 2 2 3 2 1 1 4 4 2 2 1 4 3 3 2 2 4 3 3 3 3 3 4 4 3 2 2 2 2 3 3 3 3 3 3 4
15 15 14 15 16 16 16 15 14 14 15 14 12 12 12 11 11 10 10 8 9 9 9 10 10 10 10 10 10 11 10 10 10 10 8 8 8 7 6 6 7 6 5 5 5 5 5 5 5 4 3 3 2 1 1 2 3 3 2 2 5 5 3 3 2 4 4 3 2 3 3 3 5 3 2 2 2 2 2 2 2 3 3 3 3
13 14 15 16 14 15 16 16 15 14 13 15 12 12 12 12 11 10 11 10 9 10 11 11 11 12 12 11 10 11 11 11 11 10 8 9 8 8 6 6 6 5 5 6 6 6 6 5 5 5 4 4 4 4 2 1 3 3 3 3 1 2 6 4 4 4 4 4 3 4 4 4 3 3 2 3 3 2 2 3 3 3 3 3 3
14 15 15 15 13 17 17 16 14 15 13 13 14 13 12 12 11 11 9 10 10 9 10 10 12 11 10 10 11 12 11 11 9 10 9 10 8 7 7 6 6 6 6 7 7 7 6 5 5 6 7 4 4 4 2 1 2 2 3 2 3 4 3 4 2 5 5 5 3 4 3 4 4 4 3 2 2 2 3 3 3 3 2 2 2
16 16 16 17 16 15 16 15 13 13 14 15 16 14 13 12 12 11 11 10 11 12 12 12 12 11 11 10 10 11 11 10 9 11 10 9 9 9 8 8 8 6 7 7 5 4 6 5 6 6 5 4 4 3 4 3 3 0 1 3 3 3 1 1 3 3 3 3 4 4 4 4 3 2 3 3 3 2 3 2 3 3 2 2 3
16 15 15 16 18 15 15 16 14 13 13 13 16 13 14 12 14 15 13 13 13 12 11 9 8 9 8 10 10 11 12 10 10 11 11 10 9 8 8 8 8 7 4 4 4 5 5 5 5 5 4 3 2 4 4 3 2 2 1 2 3 3 3 1 2 1 3 3 4 2 4 3 2 1 2 3 2 2 2 2 2 2 2 2 2
16 15 15 15 17 17 16 16 13 13 12 13 16 15 15 15 16 15 13 13 14 14 13 11 10 9 10 10 9 9 11 12 11 10 9 8 7 8 8 8 7 4 4 5 4 4 5 4 6 5 3 3 4 4 4 4 4 4 2 3 3 3 3 4 3 2 1 1 1 3 5 3 1 1 1 2 2 2 1 1 1 2 2 3 3
13 14 14 14 15 15 15 15 15 14 14 15 14 17 14 13 14 14 11 11 13 13 10 10 11 11 12 11 11 11 12 11 11 10 10 9 7 7 7 7 4 6 6 6 6 7 6 5 6 6 6 4 5 4 4 5 5 5 5 3 3 3 3 3 2 1 1 1 1 1 2 2 1 2 1 2 3 2 1 1 1 2 3 3 3
12 12 12 11 12 13 15 16 16 14 14 16 15 16 16 12 14 15 16 15 12 12 11 11 11 11 12 13 11 11 10 9 9 8 7 9 9 7 6 7 8 8 7 7 7 7 8 7 6 6 5 5 3 4 4 4 4 4 4 4 4 4 3 2 2 2 1 0 0 2 2 2 2 2 1 0 3 4 2 1 2 2 2 2 2
10 12 12 12 12 13 15 17 17 14 14 15 16 17 16 15 15 14 16 16 15 13 13 13 12 12 12 12 12 9 7 6 7 7 7 8 9 7 7 8 9 8 8 8 7 5 4 5 4 3 5 6 4 5 4 1 3 3 3 4 5 5 4 4 5 4 2 2 2 2 2 1 3 4 2 3 2 3 2 1 1 1 2 2 2
Wind_Direction
123 119 105 104 118 117 123 119 118 118 119 110 104 101 91 89 85 82 80 81 83 79 78 78 78 78 77 72 69 72 74 77 76 82 77 75 73 72 73 75 76 76 76 78 79 79 76 76 77 77 76 73 72 70 69 67 67 65 63 62 61 61 59 57 54 51 60 68 71 68 59 53 49 47 46 46 46 45 41 35 31 50 42 42 41
142 126 121 112 110 118 119 116 116 115 110 107 106 102 100 90 86 85 86 85 80 79 84 79 79 76 74 75 76 71 68 76 83 80 73 73 75 76 76 77 77 79 82 84 84 81 78 78 77 77 76 76 74 73 71 69 68 66 64 62 61 60 58 54 46 42 40 59 81 75 66 56 51 47 47 48 48 46 44 42 35 40 45 39 37
128 129 120 113 89 129 125 119 114 110 109 109 108 102 97 92 87 85 82 84 87 83 76 77 78 79 73 72 76 84 81 74 79 79 82 84 78 77 76 75 79 81 79 82 84 84 83 80 80 79 77 78 75 71 69 67 65 63 62 61 59 57 56 52 42 30 22 23 83 92 81 62 50 50 48 50 49 48 41 42 40 36 39 41 36
129 119 116 108 127 251 125 109 105 106 109 109 106 98 95 94 95 91 91 92 96 94 87 83 80 77 79 77 79 77 83 89 92 94 91 88 85 81 80 80 81 82 90 88 83 83 83 82 81 78 76 74 73 71 67 64 62 60 59 58 55 53 51 46 35 20 4 352 356 355 61 61 51 46 51 49 49 48 46 43 40 39 32 39 40
130 130 127 133 140 104 94 104 107 110 112 110 101 102 102 100 97 97 96 94 86 84 94 93 94 94 93 94 90 86 85 88 90 95 93 89 86 88 83 81 78 78 75 78 82 84 85 85 83 81 78 76 72 69 66 63 61 59 58 57 54 51 47 39 29 14 355 342 25 46 56 60 59 48 53 50 47 44 45 46 42 37 32 30 48
136 131 135 133 125 111 104 109 115 117 111 108 110 107 105 102 102 100 96 92 95 99 92 89 89 88 89 88 86 87 84 83 88 93 96 95 87 79 82 81 81 82 84 86 87 89 90 86 83 81 78 75 72 68 65 63 61 60 59 56 54 50 41 27 15 9 347 299 68 61 59 53 55 52 51 47 49 54 48 44 44 37 33 29 30
134 143 135 133 138 117 113 122 124 120 114 114 114 113 114 112 106 101 99 98 102 98 95 97 97 91 88 87 91 94 95 94 89 89 94 93 93 91 86 81 79 82 85 84 87 93 93 90 85 81 78 76 72 68 65 63 62 61 57 53 50 45 35 18 359 339 7 38 52 55 69 67 68 60 53 50 46 42 46 44 41 39 33 34 18
135 137 138 129 125 118 113 135 129 124 121 117 116 111 108 108 106 103 99 92 86 98 103 101 93 96 95 89 82 83 89 89 90 95 92 91 88 83 84 81 81 80 78 80 84 89 91 91 86 81 78 76 73 69 66 64 63 62 57 53 45 30 19 7 348 316 46 56 51 38 42 51 66 64 51 50 49 44 36 37 38 38 32 29 28
137 136 135 131 109 98 112 121 125 128 125 122 120 110 104 106 109 106 102 102 109 100 100 99 103 97 98 106 104 102 92 90 91 94 93 94 94 91 91 94 92 84 85 85 86 91 86 81 81 80 78 75 73 69 66 64 63 60 57 51 39 20 3 345 332 16 65 66 57 47 38 49 49 52 50 52 50 44 43 35 36 32 31 28 24
138 139 138 138 128 109 114 122 129 129 123 125 126 111 108 114 116 107 106 110 112 111 102 102 101 103 102 104 100 95 92 90 89 92 90 84 91 96 89 82 76 78 81 86 84 80 79 78 77 77 77 76 74 71 67 64 62 59 55 45 29 12 356 347 306 52 51 50 62 60 40 357 50 47 49 46 50 47 40 51 41 36 34 34 29
136 134 138 119 122 111 129 130 131 131 130 130 124 115 112 110 113 114 114 117 109 107 108 104 98 98 99 94 95 95 92 89 89 89 88 86 84 77 84 83 79 77 80 82 86 83 81 81 80 79 79 77 74 71 67 64 60 57 52 44 27 12 352 344 24 52 56 54 48 57 66 37 58 52 49 43 34 62 48 46 38 29 29 30 36
131 133 130 116 116 119 125 128 130 135 130 125 123 120 116 110 110 115 121 118 113 108 107 102 98 97 100 103 99 91 87 85 88 88 89 92 94 93 89 84 77 76 74 77 83 87 83 81 80 79 77 75 72 69 66 62 58 53 46 37 22 3 345 336 37 49 49 51 47 31 51 44 34 36 37 18 23 66 46 33 39 25 20 31 32
131 135 116 130 134 103 122 123 126 133 129 127 125 123 120 119 116 116 116 117 114 113 113 110 108 113 106 96 90 86 86 88 87 87 89 88 84 88 88 84 81 79 77 77 77 79 81 79 80 78 76 76 70 66 63 58 55 49 43 29 17 5 344 328 27 41 47 48 43 34 46 50 39 4 19 15 26 48 47 29 27 34 33 13 24
135 130 134 136 124 113 116 120 128 126 120 120 123 124 123 120 122 131 126 107 107 105 107 111 111 105 101 100 97 95 92 90 94 92 90 92 87 86 87 88 82 74 75 77 78 81 80 80 80 78 75 71 69 64 61 58 54 48 42 32 7 352 345 290 52 51 40 41 41 34 25 57 23 0 2 8 20 36 57 6 5 25 30 4 13
134 135 122 130 136 133 117 112 111 116 116 118 123 125 127 128 135 127 108 119 120 116 110 104 112 108 104 104 102 103 96 93 89 88 94 94 92 91 89 89 84 80 78 76 76 77 78 78 75 75 74 70 65 64 61 57 53 49 42 32 15 350 346 357 25 41 45 34 32 22 40 50 17 359 358 359 9 16 20 307 8 19 10 345 353
138 137 136 136 131 134 137 116 104 109 112 115 118 120 122 123 106 94 90 90 119 117 115 115 113 113 111 106 105 105 100 91 80 79 74 77 87 89 91 92 87 84 79 77 78 77 76 76 76 72 70 66 64 62 60 56 51 45 36 31 11 360 333 335 42 27 47 27 32 352 46 38 9 356 352 353 357 7 6 355 358 347 358 333 342
140 150 144 136 141 138 137 142 114 105 100 103 102 103 103 102 96 90 88 91 93 109 115 115 114 111 111 106 101 98 89 83 79 76 76 74 77 79 82 80 83 79 80 75 72 73 70 71 72 71 67 66 64 62 62 55 50 40 28 12 10 332 325 322 23 41 42 8 44 8 53 26 355 350 349 348 351 355 1 351 350 354 1 354 353
147 160 147 146 144 147 140 135 138 142 130 110 97 97 97 101 100 95 95 95 98 99 104 108 106 107 99 94 91 90 89 79 74 70 63 60 64 69 80 76 83 80 77 77 74 73 73 74 72 70 70 69 67 68 62 60 52 45 26 3 338 330 290 296 18 31 32 51 6 52 43 8 349 345 342 343 345 349 349 350 353 355 358 353 351
159 173 152 154 150 146 140 149 155 148 147 146 137 100 97 104 106 106 104 101 100 104 104 102 107 105 104 99 95 88 77 73 67 60 56 42 46 74 62 83 88 90 90 88 84 82 84 80 76 75 73 69 71 75 71 65 66 48 24 350 319 290 290 280 22 10 346 52 349 67 33 360 347 343 340 339 341 347 348 352 356 352 350 350 349
162 170 156 164 154 153 154 157 156 156 164 149 141 129 105 103 105 108 108 109 108 106 108 105 110 113 115 118 118 115 111 98 94 73 57 48 43 47 59 80 86 88 88 86 88 88 86 83 78 79 77 79 93 93 87 84 65 24 338 319 281 289 286 28 340 27 4 35 339 49 26 355 345 342 340 340 339 343 350 354 353 351 346 345 342
167 174 167 164 160 157 159 162 162 163 156 148 146 137 119 115 105 101 109 112 115 115 107 117 120 124 133 143 156 147 135 142 136 96 86 67 53 57 59 63 65 64 70 73 77 82 83 83 85 77 86 106 126 155 142 128 120 272 296 279 288 267 26 2 353 17 356 28 350 45 12 353 345 343 344 338 340 342 347 346 344 344 343 338 338
173 176 175 168 169 164 164 162 164 162 155 147 143 143 145 165 144 139 132 127 126 132 142 143 148 142 157 173 179 150 149 135 119 157 121 122 74 61 66 70 60 52 55 58 68 72 76 78 77 103 316 234 206 216 172 176 204 213 242 267 263 2 356 355 344 352 356 37 17 29 11 351 347 343 346 339 337 342 348 347 342 339 338 338 337
175 176 176 170 178 167 171 162 167 165 159 153 156 152 167 168 162 164 146 159 152 170 171 169 177 168 180 187 171 160 158 134 80 46 74 79 113 94 102 108 95 79 68 85 78 80 77 85 345 268 251 249 243 254 54 190 189 202 227 241 353 2 345 343 344 344 332 18 2 42 10 352 346 344 344 342 338 342 344 343 339 338 336 339 338
177 177 173 174 179 170 173 163 169 164 162 163 169 172 173 173 165 165 161 171 174 188 172 189 180 181 181 186 176 146 167 113 106 140 148 165 142 142 148 148 151 162 193 207 157 144 179 197 225 240 247 244 303 357 14 24 325 348 332 357 346 356 345 350 344 345 347 341 54 53 17 352 347 346 346 344 343 346 346 342 343 340 341 341 341
174 180 172 176 179 172 174 166 169 168 168 166 178 178 179 170 174 174 170 172 180 183 178 191 185 182 187 192 150 152 177 151 167 178 205 163 159 170 176 191 180 164 200 212 180 159 205 197 203 219 232 61 340 25 338 343 334 353 349 1 345 351 350 351 357 4 345 349 82 63 22 356 352 355 354 350 351 352 348 349 348 347 348 349 348
172 185 181 177 176 179 173 171 169 174 179 172 184 171 175 179 179 185 172 177 179 186 181 186 178 189 192 176 166 169 179 163 166 174 183 166 181 170 163 149 149 147 200 164 139 186 216 182 218 323 21 345 7 353 340 337 341 345 346 351 344 344 344 357 348 351 348 341 85 67 31 0 0 5 8 6 8 7 8 6 4 2 1 1 358
182 196 178 177 178 178 176 173 173 176 184 175 189 166 192 185 176 181 184 181 177 184 188 184 176 183 190 176 184 175 179 164 165 178 174 184 181 172 164 154 162 135 149 136 136 171 243 206 313 339 352 338 331 341 322 315 322 333 333 336 349 330 339 352 330 349 349 354 85 63 41 10 6 8 17 21 19 18 18 15 13 10 6 7 9
187 193 182 182 177 179 172 175 176 180 184 188 191 169 193 185 177 164 203 178 180 186 178 186 164 177 189 184 195 174 175 166 167 171 176 185 172 163 143 157 156 135 141 153 177 195 227 236 297 289 284 320 314 298 313 320 322 313 335 349 345 336 342 338 340 355 349 344 81 71 56 19 11 16 21 22 23 22 20 16 15 12 13 10 11
195 193 182 192 179 179 174 176 176 184 187 186 196 181 187 186 173 178 203 155 202 186 175 164 171 177 188 187 200 176 173 168 170 174 171 176 153 173 172 155 156 148 168 171 199 229 247 292 300 320 328 320 310 311 341 312 322 324 339 3 343 335 337 335 355 352 353 351 9 88 73 35 24 26 28 26 26 24 21 18 16 15 14 15 13
201 197 190 189 180 180 181 179 175 183 185 187 197 191 187 183 185 186 192 165 203 197 163 175 186 179 173 187 197 188 176 175 170 170 176 162 164 163 173 152 186 159 190 233 196 265 278 308 296 295 300 302 305 301 313 312 312 325 3 357 328 330 336 351 353 4 356 359 8 111 109 82 40 40 34 33 31 26 24 21 20 19 20 16 16
211 206 202 195 176 184 186 180 178 177 185 189 191 194 188 191 184 188 187 182 192 193 183 185 196 184 176 177 187 218 184 188 165 176 175 163 170 170 184 157 186 199 207 258 267 281 291 277 335 318 311 314 310 312 305 317 305 323 14 336 320 323 337 359 359 9 1 11 8 28 129 119 91 62 46 43 36 29 26 26 26 22 21 19 19
210 207 206 202 187 190 187 183 181 179 188 188 185 196 190 194 183 190 186 183 183 191 193 200 193 188 179 169 193 197 213 177 177 179 180 179 170 191 186 188 230 207 218 259 299 280 296 311 311 295 298 305 313 312 324 316 320 332 339 308 326 333 339 359 9 13 23 357 4 4 28 123 137 101 86 58 43 34 29 30 28 25 24 24 24
208 205 204 208 200 191 191 187 186 177 192 188 184 193 190 190 186 191 184 175 183 189 197 203 195 187 177 177 194 195 200 198 174 182 202 179 201 197 213 212 245 234 263 52 302 280 267 263 267 262 262 298 288 297 300 297 338 316 306 315 325 318 354 355 17 20 8 11 6 13 29 23 85 142 115 85 60 39 30 32 33 28 30 30 30
208 206 205 204 208 196 192 189 190 183 193 191 186 187 190 187 186 189 181 177 186 190 199 202 196 190 183 182 195 203 199 205 187 176 194 205 185 208 236 231 243 199 241 250 245 254 264 287 290 282 306 293 313 327 340 335 314 322 319 328 292 3 340 31 39 35 350 11 20 29 28 30 25 22 91 102 70 52 32 35 35 32 33 33 34
208 208 205 201 199 203 201 195 189 190 190 199 193 189 186 186 187 186 183 183 188 193 197 200 194 199 185 187 196 199 203 208 195 189 199 216 203 219 209 237 243 256 279 259 269 272 269 264 281 321 312 306 309 347 307 292 307 330 340 333 347 6 334 34 43 36 9 10 45 37 35 38 25 25 13 67 99 67 48 35 40 35 34 35 35
207 208 206 203 199 197 199 209 191 198 189 203 198 192 189 189 190 187 186 186 194 199 200 199 199 200 193 189 190 197 197 203 190 210 198 208 222 228 229 237 181 239 249 272 227 254 259 305 347 307 303 314 331 339 322 318 351 347 336 336 339 4 333 40 48 47 14 38 44 36 47 38 33 21 19 30 31 93 70 55 52 43 37 36 37
204 207 206 205 203 194 188 204 200 201 198 200 204 199 195 194 195 190 198 186 202 202 203 200 201 199 199 196 183 192 196 193 200 202 222 218 228 243 237 219 198 230 254 246 236 255 277 288 292 256 290 312 309 324 339 335 339 330 334 343 348 329 350 37 61 34 60 50 40 37 45 43 44 18 28 25 25 30 92 79 88 67 45 37 38
204 207 207 205 206 199 185 199 204 203 206 199 201 206 203 200 203 198 201 198 203 206 204 203 202 200 201 200 186 189 194 197 201 204 218 229 230 231 236 229 206 226 250 254 246 236 287 305 287 274 282 313 319 4 345 329 320 326 327 317 343 317 60 91 82 47 60 53 52 44 32 36 37 27 22 25 26 30 24 61 118 102 65 43 41
205 207 209 206 205 205 194 193 204 202 206 209 202 209 210 206 206 206 199 207 201 208 210 206 204 204 203 200 197 197 201 204 205 207 223 221 227 227 234 220 215 226 231 225 224 214 223 256 267 273 242 335 354 349 326 308 294 299 282 321 352 47 65 80 71 47 82 60 61 63 42 29 29 30 21 24 34 20 29 25 27 25 72 70 50
203 206 208 207 206 205 205 199 201 205 201 205 205 205 205 202 201 203 209 209 215 207 213 219 216 215 204 200 200 202 202 206 208 210 214 221 223 222 225 225 217 227 229 227 223 198 219 228 239 277 267 130 136 321 292 300 300 279 339 24 78 75 81 103 91 65 102 63 60 49 41 25 20 19 26 29 33 20 29 27 27 31 23 58 71
204 203 204 207 207 207 201 205 197 205 200 196 202 202 204 203 206 207 208 211 214 214 211 218 223 222 217 209 203 204 210 204 209 210 212 214 220 221 221 217 215 219 229 230 228 224 236 256 258 198 289 292 205 194 274 302 287 260 131 146 103 93 106 179 106 92 100 73 55 55 44 25 14 9 16 34 38 37 28 33 31 28 24 12 21
202 205 205 204 206 207 207 208 202 202 205 200 196 199 203 204 201 205 205 206 208 211 210 210 220 223 222 213 209 209 206 203 208 217 215 215 219 222 221 221 209 218 222 227 229 227 227 235 261 262 244 249 253 96 53 308 258 8 338 155 140 131 131 165 130 111 108 85 77 59 41 26 10 0 355 24 50 48 40 39 36 29 27 16 13
199 205 206 204 205 207 209 206 204 201 203 202 196 198 200 203 200 199 199 202 211 211 213 214 211 217 220 217 213 215 210 207 206 213 218 216 220 221 219 219 220 218 218 217 227 239 233 217 211 237 204 218 160 72 321 321 318 327 310 262 170 165 165 172 162 128 121 92 97 79 52 31 10 356 348 29 26 37 54 47 32 36 25 20 11
200 202 204 205 205 208 208 207 207 203 201 202 199 197 197 199 204 205 199 207 207 212 221 224 220 220 221 216 215 216 212 214 214 208 210 219 218 220 221 220 223 221 227 229 227 233 218 202 195 224 199 164 197 160 163 319 309 326 211 217 111 209 166 169 142 118 112 112 99 89 55 32 8 356 2 33 15 18 44 40 23 29 20 14 10
199 201 202 203 206 207 207 205 206 207 203 196 196 199 192 201 207 213 216 211 221 221 219 220 221 217 215 212 214 212 212 213 210 210 210 218 220 221 225 222 223 225 223 231 233 218 202 193 195 204 202 231 228 134 130 99 283 346 316 259 187 208 77 100 180 142 159 141 123 114 82 45 24 357 359 23 15 3 43 31 22 18 12 5 7
200 203 201 203 205 206 205 204 205 206 204 200 194 196 196 195 199 202 207 211 213 213 215 216 215 213 212 216 219 216 212 210 210 213 213 213 221 223 223 225 226 224 220 225 230 203 189 192 190 201 206 227 280 196 147 146 228 161 352 28 8 12 57 85 235 150 137 96 137 128 89 57 41 2 354 358 17 6 38 13 21 3 1 19 17
204 197 198 203 203 203 203 202 203 205 201 198 192 196 200 198 201 205 207 209 213 219 218 220 217 214 212 213 215 214 212 208 209 214 214 211 218 219 220 224 224 226 217 214 204 198 192 186 172 196 194 186 193 252 228 172 188 168 188 54 54 45 39 345 72 322 163 170 150 135 107 93 49 23 6 350 4 32 15 10 9 357 351 27 31
199 193 199 199 199 201 199 202 202 202 200 197 194 195 203 206 207 210 209 210 211 214 210 213 215 214 212 211 209 210 210 212 213 212 212 205 209 218 216 224 222 197 149 192 184 188 169 160 174 174 164 185 213 235 203 170 200 148 173 149 119 101 73 73 43 9 354 230 183 139 136 79 29 108 59 343 355 34 349 356 9 360 356 8 33
196 196 196 196 197 198 199 199 202 201 202 197 195 196 200 205 210 212 208 212 216 216 210 207 207 210 212 208 209 207 209 207 210 210 209 207 192 211 209 208 196 193 180 181 176 161 159 170 174 166 181 199 217 229 211 181 209 144 153 140 127 104 82 75 65 345 273 244 213 32 331 22 302 152 94 356 337 356 329 329 10 7 351 5 30
198 196 196 193 194 194 197 199 202 201 200 200 201 201 197 201 212 213 214 211 212 214 208 203 204 205 212 213 207 209 207 198 196 194 185 200 202 202 200 197 203 190 183 177 166 168 167 174 178 177 192 208 214 192 205 182 204 136 158 146 152 134 126 140 191 205 216 317 286 298 310 317 324 323 127 104 325 325 333 328 358 347 346 9 24
190 191 193 194 191 193 198 201 204 201 200 200 196 202 201 201 214 212 212 214 212 210 208 210 204 203 207 208 209 196 172 191 193 187 180 188 199 196 202 197 195 170 177 164 159 159 151 167 165 186 204 223 181 191 198 142 129 130 145 165 161 172 177 183 177 190 191 174 212 246 275 238 278 293 196 138 232 283 301 272 266 359 348 11 20